Location: *
(29.1167°S, 130.0000°E)
Time: 19:50:52
(UTC+00:00)

CZ-4 R/B - Pass Details

Date: 21 July 2019
Orbit: 531 x 599 km, 97.8° (Epoch: 24 August)

Event Time Altitude Azimuth Distance (km) Brightness Sun altitude
Exits shadow 11:01:54 22° 226° (SW) 1,298 3.5 -30.1°
Maximum altitude 11:03:05 26° 253° (WSW) 1,188 3.5 -30.3°
Drops below altitude 10° 11:06:34 10° 309° (NW) 1,926 4.7 -31.1°
Sets 11:09:00 0° 322° (NW) 2,826 5.5 -31.6°
